Time,TemperatureF,DewpointF,PressureIn,WindDirection,WindDirectionDegrees,WindSpeedMPH,WindSpeedGustMPH,Humidity,HourlyPrecipIn,Conditions,Clouds,dailyrainin,SolarRadiationWatts/m^2,SoftwareType,DateUTC
2012-09-21 00:23:00,87.0,34.0,-100.00,South,190,8.0,18.0,15,0.00,,,0.00,495.000000,,2012-09-21 00:23:00,
2012-09-21 00:34:00,87.0,34.0,-100.00,South,190,8.0,18.0,15,0.00,,,0.00,495.000000,,2012-09-21 00:34:00,
2012-09-21 00:44:00,87.0,34.0,-100.00,South,190,8.0,18.0,15,0.00,,,0.00,495.000000,,2012-09-21 00:44:00,
2012-09-21 00:53:00,87.0,34.0,-100.00,South,190,8.0,18.0,15,0.00,,,0.00,495.000000,,2012-09-21 00:53:00,
2012-09-21 02:24:00,79.0,36.0,-100.00,SSW,210,5.0,11.0,21,-99.99,,,0.00,112.000000,,2012-09-21 02:24:00,
2012-09-21 02:33:00,79.0,36.0,-100.00,SSW,210,5.0,11.0,21,-99.99,,,0.00,112.000000,,2012-09-21 02:33:00,
2012-09-21 03:24:00,72.0,40.0,-100.00,West,260,7.0,11.0,31,0.00,,,0.00,4.000000,,2012-09-21 03:24:00,
2012-09-21 03:34:00,72.0,40.0,-100.00,West,260,7.0,11.0,31,0.00,,,0.00,4.000000,,2012-09-21 03:34:00,
2012-09-21 03:43:00,72.0,40.0,-100.00,West,260,7.0,11.0,31,0.00,,,0.00,4.000000,,2012-09-21 03:43:00,
2012-09-21 03:53:00,72.0,40.0,-100.00,West,260,7.0,11.0,31,0.00,,,0.00,4.000000,,2012-09-21 03:53:00,
2012-09-21 04:34:00,68.0,39.0,-100.00,SSW,211,4.0,9.0,34,0.00,,,-99.99,1.000000,,2012-09-21 04:34:00,
2012-09-21 04:39:00,68.0,39.0,-100.00,SSW,211,4.0,9.0,34,0.00,,,-99.99,1.000000,,2012-09-21 04:39:00,
2012-09-21 04:45:00,68.0,39.0,-100.00,SSW,211,4.0,9.0,34,0.00,,,-99.99,1.000000,,2012-09-21 04:45:00,
2012-09-21 04:53:00,68.0,39.0,-100.00,SSW,211,4.0,9.0,34,0.00,,,-99.99,1.000000,,2012-09-21 04:53:00,
2012-09-21 05:24:00,64.0,39.0,-100.00,East,94,3.0,5.0,40,0.00,,,0.00,1.000000,,2012-09-21 05:24:00,
2012-09-21 05:34:00,64.0,39.0,-100.00,East,94,3.0,5.0,40,0.00,,,0.00,1.000000,,2012-09-21 05:34:00,
2012-09-21 05:43:00,64.0,39.0,-100.00,East,94,3.0,5.0,40,0.00,,,0.00,1.000000,,2012-09-21 05:43:00,
2012-09-21 05:53:00,64.0,39.0,-100.00,East,94,3.0,5.0,40,0.00,,,0.00,1.000000,,2012-09-21 05:53:00,
2012-09-21 06:14:00,62.0,40.0,-100.00,NE,49,3.0,8.0,45,0.00,,,0.00,1.000000,,2012-09-21 06:14:00,
2012-09-21 06:24:00,62.0,40.0,-100.00,NE,49,3.0,8.0,45,0.00,,,0.00,1.000000,,2012-09-21 06:24:00,
2012-09-21 06:33:00,62.0,40.0,-100.00,NE,49,3.0,8.0,45,0.00,,,0.00,1.000000,,2012-09-21 06:33:00,
2012-09-21 06:43:00,62.0,40.0,-100.00,NE,49,3.0,8.0,45,0.00,,,0.00,1.000000,,2012-09-21 06:43:00,
2012-09-21 06:53:00,62.0,40.0,-100.00,NE,49,3.0,8.0,45,0.00,,,0.00,1.000000,,2012-09-21 06:53:00,
2012-09-21 07:23:00,59.0,38.0,-100.00,East,89,3.0,4.0,45,0.00,,,0.00,1.000000,,2012-09-21 07:23:00,
2012-09-21 07:35:00,59.0,38.0,-100.00,East,89,3.0,4.0,45,0.00,,,0.00,1.000000,,2012-09-21 07:35:00,
2012-09-21 07:44:00,59.0,38.0,-100.00,East,89,3.0,4.0,45,0.00,,,0.00,1.000000,,2012-09-21 07:44:00,
2012-09-21 07:53:00,59.0,38.0,-100.00,East,89,3.0,4.0,45,0.00,,,0.00,1.000000,,2012-09-21 07:53:00,
2012-09-21 08:14:00,55.0,36.0,-100.00,ENE,77,3.0,3.0,49,0.00,,,0.00,1.000000,,2012-09-21 08:14:00,
2012-09-21 08:24:00,55.0,36.0,-100.00,ENE,77,3.0,3.0,49,0.00,,,0.00,1.000000,,2012-09-21 08:24:00,
2012-09-21 08:33:00,55.0,36.0,-100.00,ENE,77,3.0,3.0,49,0.00,,,0.00,1.000000,,2012-09-21 08:33:00,
2012-09-21 08:43:00,55.0,36.0,-100.00,ENE,77,3.0,3.0,49,0.00,,,0.00,1.000000,,2012-09-21 08:43:00,
2012-09-21 08:52:00,55.0,36.0,-100.00,ENE,77,3.0,3.0,49,0.00,,,0.00,1.000000,,2012-09-21 08:52:00,
2012-09-21 09:13:00,54.0,36.0,-100.00,ENE,74,3.0,4.0,51,0.00,,,0.00,1.000000,,2012-09-21 09:13:00,
2012-09-21 09:24:00,54.0,36.0,-100.00,ENE,74,3.0,4.0,51,0.00,,,0.00,1.000000,,2012-09-21 09:24:00,
2012-09-21 09:34:00,54.0,36.0,-100.00,ENE,74,3.0,4.0,51,0.00,,,0.00,1.000000,,2012-09-21 09:34:00,
2012-09-21 09:43:00,54.0,36.0,-100.00,ENE,74,3.0,4.0,51,0.00,,,0.00,1.000000,,2012-09-21 09:43:00,
2012-09-21 09:53:00,54.0,36.0,-100.00,ENE,74,3.0,4.0,51,0.00,,,0.00,1.000000,,2012-09-21 09:53:00,
2012-09-21 10:18:00,51.0,35.0,-100.00,ENE,72,4.0,5.0,54,-99.99,,,-99.99,1.000000,,2012-09-21 10:18:00,
2012-09-21 10:27:00,51.0,35.0,-100.00,ENE,72,4.0,5.0,54,-99.99,,,-99.99,1.000000,,2012-09-21 10:27:00,
2012-09-21 10:33:00,51.0,35.0,-100.00,ENE,72,4.0,5.0,54,-99.99,,,-99.99,1.000000,,2012-09-21 10:33:00,
2012-09-21 10:44:00,51.0,35.0,-100.00,ENE,72,4.0,5.0,54,-99.99,,,-99.99,1.000000,,2012-09-21 10:44:00,
2012-09-21 10:53:00,51.0,35.0,-100.00,ENE,72,4.0,5.0,54,-99.99,,,-99.99,1.000000,,2012-09-21 10:53:00,
2012-09-21 11:14:00,50.0,35.0,-100.00,East,79,3.0,6.0,57,0.00,,,0.00,1.000000,,2012-09-21 11:14:00,
2012-09-21 11:24:00,50.0,35.0,-100.00,East,79,3.0,6.0,57,0.00,,,0.00,1.000000,,2012-09-21 11:24:00,
2012-09-21 11:34:00,50.0,35.0,-100.00,East,79,3.0,6.0,57,0.00,,,0.00,1.000000,,2012-09-21 11:34:00,
2012-09-21 11:43:00,50.0,35.0,-100.00,East,79,3.0,6.0,57,0.00,,,0.00,1.000000,,2012-09-21 11:43:00,
2012-09-21 11:53:00,50.0,35.0,-100.00,East,79,3.0,6.0,57,0.00,,,0.00,1.000000,,2012-09-21 11:53:00,
2012-09-21 12:14:00,48.0,36.0,-100.00,ENE,57,5.0,7.0,62,0.00,,,0.00,1.000000,,2012-09-21 12:14:00,
2012-09-21 12:23:00,48.0,36.0,-100.00,ENE,57,5.0,7.0,62,0.00,,,0.00,1.000000,,2012-09-21 12:23:00,
2012-09-21 12:34:00,48.0,36.0,-100.00,ENE,57,5.0,7.0,62,0.00,,,0.00,1.000000,,2012-09-21 12:34:00,
2012-09-21 12:43:00,48.0,36.0,-100.00,ENE,57,5.0,7.0,62,0.00,,,0.00,1.000000,,2012-09-21 12:43:00,
2012-09-21 12:53:00,48.0,36.0,-100.00,ENE,57,5.0,7.0,62,0.00,,,0.00,1.000000,,2012-09-21 12:53:00,
2012-09-21 13:15:00,46.0,35.0,-100.00,ENE,77,4.0,7.0,65,0.00,,,0.00,1.000000,,2012-09-21 13:15:00,
2012-09-21 13:23:00,46.0,35.0,-100.00,ENE,77,4.0,7.0,65,0.00,,,0.00,1.000000,,2012-09-21 13:23:00,
2012-09-21 13:34:00,46.0,35.0,-100.00,ENE,77,4.0,7.0,65,0.00,,,0.00,1.000000,,2012-09-21 13:34:00,
2012-09-21 13:43:00,46.0,35.0,-100.00,ENE,77,4.0,7.0,65,0.00,,,0.00,1.000000,,2012-09-21 13:43:00,
2012-09-21 13:52:00,46.0,35.0,-100.00,ENE,77,4.0,7.0,65,0.00,,,0.00,1.000000,,2012-09-21 13:52:00,
2012-09-21 14:14:00,44.0,36.0,-100.00,ENE,59,7.0,9.0,72,0.00,,,0.00,1.000000,,2012-09-21 14:14:00,
2012-09-21 14:24:00,44.0,36.0,-100.00,ENE,59,7.0,9.0,72,0.00,,,0.00,1.000000,,2012-09-21 14:24:00,
2012-09-21 14:33:00,44.0,36.0,-100.00,ENE,59,7.0,9.0,72,0.00,,,0.00,1.000000,,2012-09-21 14:33:00,
2012-09-21 14:43:00,44.0,36.0,-100.00,ENE,59,7.0,9.0,72,0.00,,,0.00,1.000000,,2012-09-21 14:43:00,
2012-09-21 14:52:00,44.0,36.0,-100.00,ENE,59,7.0,9.0,72,0.00,,,0.00,1.000000,,2012-09-21 14:52:00,
2012-09-21 15:25:00,47.0,37.0,-100.00,NE,49,7.0,10.0,69,0.00,,,0.00,17.000000,,2012-09-21 15:25:00,
2012-09-21 15:33:00,47.0,37.0,-100.00,NE,49,7.0,10.0,69,0.00,,,0.00,17.000000,,2012-09-21 15:33:00,
2012-09-21 15:43:00,47.0,37.0,-100.00,NE,49,7.0,10.0,69,0.00,,,0.00,17.000000,,2012-09-21 15:43:00,
2012-09-21 15:53:00,47.0,37.0,-100.00,NE,49,7.0,10.0,69,0.00,,,0.00,17.000000,,2012-09-21 15:53:00,
2012-09-21 16:14:00,54.0,38.0,-100.00,ENE,66,5.0,9.0,54,0.00,,,0.00,219.000000,,2012-09-21 16:14:00,
2012-09-21 16:24:00,54.0,38.0,-100.00,ENE,66,5.0,9.0,54,0.00,,,0.00,219.000000,,2012-09-21 16:24:00,
2012-09-21 16:33:00,54.0,38.0,-100.00,ENE,66,5.0,9.0,54,0.00,,,0.00,219.000000,,2012-09-21 16:33:00,
2012-09-21 16:44:00,54.0,38.0,-100.00,ENE,66,5.0,9.0,54,0.00,,,0.00,219.000000,,2012-09-21 16:44:00,
2012-09-21 16:53:00,54.0,38.0,-100.00,ENE,66,5.0,9.0,54,0.00,,,0.00,219.000000,,2012-09-21 16:53:00,
2012-09-21 17:14:00,66.0,40.0,-100.00,ENE,65,2.0,7.0,39,0.00,,,0.00,440.000000,,2012-09-21 17:14:00,
2012-09-21 17:24:00,66.0,40.0,-100.00,ENE,65,2.0,7.0,39,0.00,,,0.00,440.000000,,2012-09-21 17:24:00,
2012-09-21 17:33:00,66.0,40.0,-100.00,ENE,65,2.0,7.0,39,0.00,,,0.00,440.000000,,2012-09-21 17:33:00,
2012-09-21 17:43:00,66.0,40.0,-100.00,ENE,65,2.0,7.0,39,0.00,,,0.00,440.000000,,2012-09-21 17:43:00,
2012-09-21 17:53:00,66.0,40.0,-100.00,ENE,65,2.0,7.0,39,0.00,,,0.00,440.000000,,2012-09-21 17:53:00,
2012-09-21 18:15:00,72.0,42.0,-100.00,SW,223,4.0,8.0,34,0.00,,,0.00,590.000000,,2012-09-21 18:15:00,
2012-09-21 18:24:00,72.0,42.0,-100.00,SW,223,4.0,8.0,34,0.00,,,0.00,590.000000,,2012-09-21 18:24:00,
2012-09-21 18:43:00,72.0,42.0,-100.00,SW,223,4.0,8.0,34,0.00,,,0.00,590.000000,,2012-09-21 18:43:00,
2012-09-21 18:53:00,72.0,42.0,-100.00,SW,223,4.0,8.0,34,0.00,,,0.00,590.000000,,2012-09-21 18:53:00,
2012-09-21 19:24:00,75.0,40.0,-100.00,SW,227,7.0,11.0,28,0.00,,,0.00,718.000000,,2012-09-21 19:24:00,
2012-09-21 19:34:00,75.0,40.0,-100.00,SW,227,7.0,11.0,28,0.00,,,0.00,718.000000,,2012-09-21 19:34:00,
2012-09-21 19:43:00,75.0,40.0,-100.00,SW,227,7.0,11.0,28,0.00,,,0.00,718.000000,,2012-09-21 19:43:00,
2012-09-21 19:53:00,75.0,40.0,-100.00,SW,227,7.0,11.0,28,0.00,,,0.00,718.000000,,2012-09-21 19:53:00,
2012-09-21 21:14:00,82.0,26.0,-100.00,WSW,253,8.0,13.0,13,0.00,,,0.00,792.000000,,2012-09-21 21:14:00,
2012-09-21 21:24:00,82.0,26.0,-100.00,WSW,253,8.0,13.0,13,0.00,,,0.00,792.000000,,2012-09-21 21:24:00,
2012-09-21 21:34:00,82.0,26.0,-100.00,WSW,253,8.0,13.0,13,0.00,,,0.00,792.000000,,2012-09-21 21:34:00,
2012-09-21 22:17:00,83.0,27.0,-100.00,SW,227,7.0,13.0,13,0.00,,,0.00,720.000000,,2012-09-21 22:17:00,
2012-09-21 23:14:00,83.0,29.0,-100.00,WSW,258,7.0,15.0,14,0.00,,,0.00,647.000000,,2012-09-21 23:14:00,
2012-09-21 23:24:00,83.0,29.0,-100.00,WSW,258,7.0,15.0,14,0.00,,,0.00,647.000000,,2012-09-21 23:24:00,